Location: Batang Balui
(2.7000°N, 113.7833°E)
Time: 19:25:29
(UTC+00:00)

VELOX 1 - Pass Details

Date: 07 April 2023
Orbit: 617 x 630 km, 98.4° (Epoch: 01 June)

Event Time Altitude Azimuth Distance (km) Brightness Sun altitude
Rises 21:33:12 0° 137° (SE) 2,912 ? -13.0°
Reaches altitude 10° 21:36:07 10° 116° (ESE) 2,000 ? -12.3°
Maximum altitude 21:38:49 16° 77° (ENE) 1,625 ? -11.6°
Drops below altitude 10° 21:41:29 10° 39° (NE) 1,990 ? -10.9°
Sets 21:44:23 0° 17° (NNE) 2,890 ? -10.2°
